Flag for Germany Weather past 2 weeks in Friedrichshafen, Baden-Württemberg, Germany

Now
43 °F

Sprinkles. Mostly cloudy.


Feels Like: 32 °F
Forecast: 32 / 50 °F
Wind: 31 mph from West

Location: Friedrichshafen Airport

Current Time: Apr 2, 2015 at 12:43:17 PM

Latest Report: Apr 2, 2015 at 12:20 PM


Visibility: N/A

Pressure: 30.01 "Hg

Humidity: 66%

Dew point: 32 °F

Location of FriedrichshafenLocation

Historic Weather in Friedrichshafen — Graph

°F

Friedrichshafen temperature yesterday

Maximum temperature yesterday: 46 °F (at 12:20 AM)
Minimum temperature yesterday: 34 °F (at 7:50 AM)
Average temperature yesterday: 41 °F

Past Weeks' High & Low Weather Summary

 TemperatureHumidityPressure
High61 °F (Mar 18, 3:20 PM)93% (Mar 22, 5:50 AM)30.27 "Hg (Mar 22, 5:50 AM)
Low32 °F (Mar 21, 2:50 AM)20% (Mar 19, 5:50 PM)29.56 "Hg (Mar 25, 1:20 PM)
Average45 °F66%29.98 "Hg
* Reported Mar 18 10:20 AM — Apr 2 11:20 AM, Friedrichshafen, Weather by CustomWeather, © 2015

Note: Actual official high and low records may vary slightly from our data, if they occured in-between our weather recording intervals... More about our weather records

Advertising

Friedrichshafen weather history for previous 24 hours

 ConditionsComfort  
Time TempWeatherWind HumidityBarometerVisibility
11:20 AM
Thu, Apr 2
41 °FDrizzle. Mostly cloudy.24 mph76%30.01 "HgN/A
10:50 AM41 °FDrizzle. Mostly cloudy.23 mph70%30.04 "HgN/A
10:20 AM41 °FLight rain. Mostly cloudy.23 mph70%30.04 "HgN/A
9:50 AM41 °FLight rain. Mostly cloudy.24 mph70%30.04 "HgN/A
9:20 AM39 °FDrizzle. Mostly cloudy.21 mph75%30.04 "HgN/A
8:50 AM39 °FLight rain. More clouds than sun.18 mph75%30.04 "HgN/A
8:20 AM39 °FSprinkles. Mostly cloudy.17 mph75%30.07 "HgN/A
7:50 AM41 °FSprinkles. Overcast.20 mph66%30.07 "HgN/A
7:20 AM41 °FSprinkles. Mostly cloudy.23 mph66%30.07 "HgN/A
6:50 AM41 °FSprinkles. Mostly cloudy.22 mph61%30.07 "HgN/A
6:20 AM43 °FDrizzle. Overcast.22 mph57%30.07 "HgN/A
5:50 AM41 °FLight rain. Overcast.15 mph61%30.09 "HgN/A
5:20 AM41 °FLight rain. Overcast.18 mph61%30.09 "HgN/A
4:50 AM41 °FLight rain. Mostly cloudy.18 mph66%30.12 "HgN/A
4:20 AM41 °FMostly cloudy.18 mph61%30.15 "HgN/A
3:50 AM41 °FOvercast.16 mph61%30.15 "HgN/A
3:20 AM41 °FMostly cloudy.14 mph61%30.18 "HgN/A
2:50 AM41 °FMostly cloudy.18 mph61%30.18 "HgN/A
2:20 AM41 °FMostly cloudy.15 mph61%30.18 "HgN/A
1:50 AM41 °FMostly cloudy.13 mph61%30.21 "HgN/A
1:20 AM41 °FMostly cloudy.13 mph61%30.21 "HgN/A
12:50 AM41 °FMostly cloudy.13 mph61%30.24 "HgN/A
12:20 AM41 °FMostly cloudy.15 mph61%30.24 "HgN/A
11:50 PM
Wed, Apr 1
41 °FMostly cloudy.13 mph57%30.24 "HgN/A
11:20 PM41 °FOvercast.13 mph57%30.24 "HgN/A
10:50 PM39 °FMostly cloudy.10 mph65%30.27 "HgN/A
10:20 PM39 °FPassing clouds.9 mph65%30.27 "HgN/A
10:03 PM39 °FPartly cloudy.8 mph65%30.27 "HgN/A
9:50 PM39 °FClear.10 mph65%30.27 "Hg10 mi
9:20 PM39 °FPassing clouds.13 mph65%30.24 "HgN/A
8:50 PM41 °FPartly sunny.13 mph61%30.24 "HgN/A
8:20 PM39 °FBroken clouds.7 mph65%30.24 "HgN/A
7:50 PM41 °FSprinkles. Overcast.8 mph61%30.24 "HgN/A
7:20 PM41 °FLight rain. Overcast.17 mph57%30.21 "HgN/A
6:50 PM43 °FBroken clouds.10 mph46%30.21 "HgN/A
6:20 PM43 °FBroken clouds.10 mph49%30.21 "HgN/A
5:50 PM41 °FLight rain. Overcast.16 mph66%30.18 "HgN/A
5:20 PM43 °FBroken clouds.18 mph61%30.18 "HgN/A
4:50 PM43 °FSprinkles. Partly sunny.16 mph66%30.18 "HgN/A
4:20 PM45 °FPartly sunny.12 mph42%30.15 "HgN/A
3:50 PM45 °FPartly sunny.9 mph49%30.18 "HgN/A
3:20 PM41 °FBroken clouds.12 mph70%30.18 "HgN/A
2:50 PM43 °FScattered clouds.14 mph71%30.18 "HgN/A
2:20 PM39 °FScattered clouds.15 mph81%30.18 "HgN/A
1:50 PM39 °FSprinkles. Partly sunny.8 mph81%30.18 "HgN/A
1:20 PM37 °FSprinkles. Cloudy.5 mph75%30.18 "HgN/A
12:50 PM41 °FSprinkles. Mostly cloudy.8 mph61%30.18 "HgN/A
12:20 PM41 °FBroken clouds.7 mph61%30.18 "HgN/A
Weather by CustomWeather, © 2015

See weather overviewHow to use our weather pages